Home   Weather   Davenport   Past weeks

Flag for USA Past Weather in Davenport, Iowa, USA — Yesterday and Last 2 Weeks

Now
59 °F

Fog.


Feels Like: 59 °F
Forecast: 59 / 68 °F
Wind: 5 mph from North

Location: Davenport Municipal Airport

Current Time: Oct 1, 2016 at 8:51:19 AM

Latest Report: Oct 1, 2016 at 7:52 AM


Visibility: 5 mi

Pressure: 30.06 "Hg

Humidity: 96%

Dew Point: 58 °F

Location of DavenportLocation

Past Weather in Davenport — Graph

°F

Davenport Temperature Yesterday

Maximum temperature yesterday: 66 °F (at 3:52 PM)
Minimum temperature yesterday: 53 °F (at 1:52 AM)
Average temperature yesterday: 60 °F

High & Low Weather Summary for the Past Weeks

 TemperatureHumidityPressure
High88 °F (Sep 19, 2:52 PM)100% (Sep 18, 6:52 AM)30.29 "Hg (Sep 18, 6:52 AM)
Low47 °F (Sep 27, 6:52 AM)19% (Sep 27, 4:52 PM)29.77 "Hg (Sep 27, 4:52 PM)
Average67 °F74%30.03 "Hg
* Reported Sep 16 7:52 AM — Oct 1 7:52 AM, Davenport, Weather by CustomWeather, © 2016

Note: Actual official high and low records may vary slightly from our data, if they occured in-between our weather recording intervals... More about our weather records

Advertising

Davenport Weather History for the Previous 24 Hours

Scroll right to see more
 ConditionsComfort  
Time TempWeatherWind HumidityBarometerVisibility
7:52 AM
Sat, Oct 1
59 °FFog.5 mph96%30.06 "Hg5 mi
6:52 AM59 °FLow clouds.5 mph96%30.06 "Hg8 mi
5:52 AM60 °FLow clouds.7 mph90%30.05 "Hg10 mi
4:52 AM60 °FLow clouds.6 mph93%30.05 "Hg10 mi
3:52 AM60 °FOvercast.6 mph93%30.05 "Hg10 mi
2:52 AM60 °FOvercast.8 mph90%30.06 "Hg10 mi
1:52 AM60 °FOvercast.8 mph90%30.07 "Hg10 mi
12:52 AM60 °FMostly cloudy.9 mph90%30.08 "Hg10 mi
12:02 AM60 °FLow clouds.8 mph90%30.09 "Hg10 mi
11:52 PM
Fri, Sep 30
60 °FOvercast.9 mph90%30.09 "Hg10 mi
10:52 PM60 °FMostly cloudy.9 mph93%30.10 "Hg10 mi
9:52 PM60 °FOvercast.8 mph93%30.11 "Hg10 mi
8:52 PM60 °FOvercast.9 mph93%30.11 "Hg10 mi
7:52 PM60 °FFog.10 mph93%30.11 "Hg5 mi
6:52 PM60 °FLight rain. Fog.9 mph93%30.12 "Hg5 mi
5:52 PM62 °FCloudy.9 mph83%30.12 "Hg10 mi
4:52 PM63 °FOvercast.14 mph81%30.12 "Hg6 mi
3:52 PM66 °FMostly cloudy.15 mph73%30.11 "Hg10 mi
2:52 PM64 °FOvercast.14 mph78%30.14 "Hg10 mi
1:52 PM64 °FOvercast.8 mph78%30.15 "Hg10 mi
12:52 PM63 °FOvercast.9 mph78%30.18 "Hg10 mi
11:52 AM62 °FOvercast.14 mph80%30.19 "Hg10 mi
10:52 AM61 °FMostly cloudy.13 mph83%30.20 "Hg10 mi
9:52 AM61 °FMostly cloudy.17 mph83%30.20 "Hg10 mi
8:52 AM59 °FMostly cloudy.14 mph90%30.19 "Hg10 mi
Weather by CustomWeather, © 2016

See weather overviewHow to use our weather pages